This demonstration page uses our WeatherBlox Daily Observations layout. Learn more.

Left ArrowRight Arrow

39.12711, -84.51439

Hourly Observations for July 14, 2020

Temp ( °F °C ) Dew Point ( °F °C ) Humidity (%) Winds ( mph kmh ) Pressure ( in mb ) Visibility ( mi km ) Precip ( " mm )
12:53 am 00:53 Mostly Clear 68 20 63 17.2 84 84 Calm 29.98 1015 10 16 0.00 0.00
1:53 am 01:53 Clear 65 18.3 62 16.7 90 90 Calm 29.99 1016 10 16 0.00 0.00
2:53 am 02:53 Clear 65 18.3 62 16.7 90 90 Calm 29.98 1015 10 16 0.00 0.00
3:53 am 03:53 Clear 64 17.8 62 16.7 93 93 ENE 3 6 29.98 1015 10 16 0.00 0.00
4:53 am 04:53 Clear 64 17.8 62 16.7 93 93 Calm 29.99 1016 10 16 0.00 0.00
5:53 am 05:53 Mostly Clear 63 17.2 61 16.1 93 93 Calm 30.01 1016 10 16 0.00 0.00
6:53 am 06:53 Sunny 63 17.2 62 16.7 97 97 Calm 30.04 1017 10 16 0.00 0.00
7:53 am 07:53 Partly Cloudy 66 18.9 64 17.8 93 93 Calm 30.05 1018 10 16 0.00 0.00
8:53 am 08:53 Mostly Sunny 70 21.1 64 17.8 82 82 Calm 30.06 1018 10 16 0.00 0.00
9:53 am 09:53 Sunny 77 25 65 18.3 66 66 Calm 30.05 1018 10 16 0.00 0.00
10:53 am 10:53 Sunny 79 26.1 66 18.9 65 65 SSW 5 7 30.04 1017 10 16 0.00 0.00
11:53 am 11:53 Sunny 82 27.8 68 20 63 63 S 7 11 30.04 1017 10 16 0.00 0.00
12:53 pm 12:53 Cloudy 82 27.8 65 18.3 56 56 Calm 30.03 1017 10 16 0.00 0.00
1:53 pm 13:53 Mostly Cloudy 84 28.9 65 18.3 53 53 N 5 7 30.04 1017 10 16 0.00 0.00
2:53 pm 14:53 Mostly Cloudy 87 30.6 63 17.2 45 45 Calm 30.04 1017 10 16 0.00 0.00
3:53 pm 15:53 Partly Cloudy 86 30 63 17.2 46 46 Calm 30.02 1017 10 16 0.00 0.00
4:53 pm 16:53 Partly Cloudy 88 31.1 62 16.7 42 42 Calm 30.01 1016 10 16 0.00 0.00
5:53 pm 17:53 Mostly Sunny 86 30 64 17.8 48 48 SSE 8 13 30.01 1016 10 16 0.00 0.00
6:53 pm 18:53 Partly Cloudy 86 30 64 17.8 48 48 Calm 30.01 1016 10 16 0.00 0.00
7:53 pm 19:53 Mostly Sunny 82 27.8 66 18.9 58 58 SSE 5 7 30.02 1017 10 16 0.00 0.00
8:53 pm 20:53 Mostly Sunny 78 25.6 67 19.4 69 69 Calm 30.02 1017 10 16 0.00 0.00
9:53 pm 21:53 Clear 74 23.3 66 18.9 76 76 Calm 30.03 1017 10 16 0.00 0.00
10:53 pm 22:53 Clear 70 21.1 65 18.3 84 84 Calm 30.04 1017 10 16 0.00 0.00
11:53 pm 23:53 Clear 68 20 65 18.3 90 90 Calm 30.05 1018 10 16 0.00 0.00

Powered by AerisWeather